Lyndonville, VT

1:49 PM EDT on June 22, 2017 (GMT -0400)
Lyndonville

Weather History for KCDA - June, 2012

Change the Weather History Date:

Saturday, June 2, 2012

  Actual Average (K1V4) Record (K1V4)
Temperature  
Mean Temperature 56 °F -  
Max Temperature 60 °F 68 °F 93 °F (1934)
Min Temperature 51 °F 44 °F 31 °F (1945)
Degree Days  
Heating Degree Days 10    
Growing Degree Days 6 (Base 50)    
Moisture  
Dew Point 45 °F    
Average Humidity 71    
Maximum Humidity 89    
Minimum Humidity 40    
Precipitation  
Precipitation 0.00 in - - ()
Sea Level Pressure  
Sea Level Pressure 29.86 in    
Wind  
Wind Speed 8 mph (ESE)    
Max Wind Speed 23 mph    
Max Gust Speed 33 mph    
Visibility 9 miles    
Events Rain    
Averages and records for this station are not official NWS values.
T = Trace of Precipitation, MM = Missing Value Source: NWS Daily Summary

Daily Weather History Graph

Daily Weather History Graph

Search for Another Location

Airport or City:

Trip Planner

Search our weather history database for the weather conditions in past years. The results will help you decide how hot, cold, wet, or windy it might be!

Date:

Astronomy

Jun. 02, 2012 Rise Set
Actual Time 5:05 AM EDT 8:27 PM EDT
Civil Twilight 4:29 AM EDT 9:03 PM EDT
Nautical Twilight 3:42 AM EDT 9:50 PM EDT
Astronomical Twilight 2:43 AM EDT 10:49 PM EDT
Moon 6:36 PM EDT (6/2) 3:25 AM EDT (6/2)
Length of Visible Light 16h 33m
Length of Day
15h 21m
Waxing Gibbous, 95% of the Moon is Illuminated
Jun 2
Waxing Gibbous
Jun 4
Full
Jun 11
Last Quarter
Jun 19
New
Jun 26
First Quarter

Hourly Weather History & Observations

Time (EDT) Temp. Dew Point Humidity Pressure Visibility Wind Dir Wind Speed Gust Speed Precip Events Conditions
12:35 AM 58.5 °F 42.4 °F 55% 30.00 in 10.0 mi South 4.6 mph - N/A Rain Light Rain
12:55 AM 57.6 °F 44.1 °F 61% 30.00 in 10.0 mi SSE 3.5 mph - N/A Rain Light Rain
1:15 AM 57.4 °F 43.7 °F 60% 29.99 in 10.0 mi SE 3.5 mph - N/A Rain Light Rain
1:35 AM 57.4 °F 43.3 °F 59% 29.98 in 10.0 mi SSE 4.6 mph - N/A   Overcast
1:55 AM 56.8 °F 44.8 °F 64% 29.97 in 10.0 mi Calm Calm - N/A   Overcast
2:15 AM 56.7 °F 44.4 °F 64% 29.97 in 10.0 mi Calm Calm - N/A   Overcast
2:35 AM 58.1 °F 41.4 °F 54% 29.96 in 10.0 mi ESE 4.6 mph - N/A   Overcast
2:55 AM 59.0 °F 38.5 °F 47% 29.95 in 10.0 mi SE 10.4 mph 19.6 mph N/A   Overcast
3:15 AM 59.4 °F 37.6 °F 44% 29.94 in 10.0 mi ESE 13.8 mph 20.7 mph N/A   Overcast
3:35 AM 60.1 °F 36.0 °F 41% 29.93 in 10.0 mi ESE 12.7 mph 25.3 mph N/A   Overcast
3:55 AM 59.9 °F 36.0 °F 41% 29.92 in 10.0 mi ESE 15.0 mph 20.7 mph N/A   Overcast
4:15 AM 60.1 °F 35.6 °F 40% 29.91 in 10.0 mi ESE 18.4 mph 31.1 mph N/A   Overcast
4:35 AM 59.7 °F 35.1 °F 40% 29.90 in 10.0 mi ESE 13.8 mph 23.0 mph N/A   Overcast
4:55 AM 59.2 °F 34.5 °F 40% 29.89 in 10.0 mi ESE 18.4 mph 27.6 mph N/A   Overcast
5:15 AM 59.0 °F 34.7 °F 40% 29.90 in 10.0 mi ESE 19.6 mph 26.5 mph N/A   Overcast
5:35 AM 59.0 °F 35.2 °F 41% 29.90 in 10.0 mi ESE 23.0 mph 33.4 mph N/A   Overcast
5:55 AM 58.3 °F 36.9 °F 45% 29.90 in 10.0 mi ESE 15.0 mph 21.9 mph N/A   Overcast
6:15 AM 58.1 °F 38.1 °F 47% 29.91 in 10.0 mi ESE 13.8 mph 28.8 mph N/A   Overcast
6:35 AM 56.8 °F 39.9 °F 53% 29.92 in 10.0 mi SE 13.8 mph 26.5 mph N/A   Drizzle
6:55 AM 55.2 °F 42.1 °F 61% 29.92 in 10.0 mi ESE 15.0 mph 19.6 mph N/A Rain Light Rain
7:35 AM 53.1 °F 43.3 °F 70% 29.90 in 10.0 mi ESE 13.8 mph 26.5 mph N/A Rain Light Rain
7:55 AM 52.9 °F 43.2 °F 70% 29.90 in 10.0 mi SE 10.4 mph 28.8 mph N/A Rain Light Rain
8:15 AM 52.9 °F 43.7 °F 71% 29.90 in 10.0 mi ESE 13.8 mph 21.9 mph N/A   Mostly Cloudy
8:35 AM 53.1 °F 43.7 °F 71% 29.91 in 10.0 mi SE 9.2 mph 17.3 mph N/A   Scattered Clouds
8:55 AM 52.7 °F 43.5 °F 71% 29.90 in 10.0 mi ESE 13.8 mph 28.8 mph N/A Rain Light Rain
9:15 AM 52.2 °F 44.4 °F 75% 29.90 in 10.0 mi SE 12.7 mph 18.4 mph N/A Rain Light Rain
9:35 AM 52.9 °F 44.2 °F 72% 29.90 in 10.0 mi ESE 10.4 mph 19.6 mph N/A   Mostly Cloudy
9:55 AM 53.6 °F 43.5 °F 69% 29.89 in 10.0 mi SE 11.5 mph 19.6 mph N/A   Mostly Cloudy
10:15 AM 54.5 °F 43.7 °F 67% 29.89 in 10.0 mi ESE 12.7 mph 17.3 mph N/A   Mostly Cloudy
10:35 AM 54.5 °F 43.3 °F 66% 29.88 in 10.0 mi ESE 13.8 mph 25.3 mph N/A   Mostly Cloudy
10:55 AM 54.7 °F 42.8 °F 64% 29.88 in 10.0 mi SE 15.0 mph 25.3 mph N/A   Mostly Cloudy
11:15 AM 54.7 °F 43.2 °F 65% 29.88 in 10.0 mi ESE 9.2 mph 23.0 mph N/A   Overcast
11:35 AM 54.9 °F 43.7 °F 66% 29.87 in 10.0 mi SE 11.5 mph 18.4 mph N/A   Overcast
11:55 AM 54.7 °F 44.4 °F 68% 29.86 in 10.0 mi ESE 13.8 mph 23.0 mph N/A   Overcast
12:15 PM 55.8 °F 44.6 °F 66% 29.86 in 10.0 mi ESE 13.8 mph 20.7 mph N/A   Overcast
12:35 PM 54.5 °F 45.9 °F 73% 29.86 in 7.0 mi ESE 13.8 mph 17.3 mph N/A Rain Light Rain
12:55 PM 53.1 °F 46.8 °F 79% 29.86 in 7.0 mi SE 10.4 mph - N/A Rain Light Rain
1:15 PM 52.9 °F 46.4 °F 79% 29.85 in 10.0 mi ESE 11.5 mph 24.2 mph N/A   Overcast
1:35 PM 53.6 °F 46.6 °F 77% 29.85 in 10.0 mi ESE 8.1 mph - N/A   Overcast
1:55 PM 54.3 °F 47.7 °F 78% 29.84 in 10.0 mi ESE 5.8 mph - N/A   Overcast
2:15 PM 53.8 °F 47.3 °F 79% 29.83 in 10.0 mi East 8.1 mph - N/A   Overcast
2:35 PM 54.5 °F 48.2 °F 79% 29.83 in 5.0 mi ESE 6.9 mph - N/A Rain Rain
2:55 PM 53.6 °F 48.4 °F 82% 29.82 in 2.5 mi ESE 4.6 mph - N/A Rain Rain
3:15 PM 53.8 °F 49.1 °F 84% 29.83 in 7.0 mi ENE 3.5 mph - N/A Rain Light Rain
3:35 PM 53.6 °F 48.9 °F 84% 29.82 in 5.0 mi East 5.8 mph - N/A Rain Rain
3:55 PM 52.9 °F 48.2 °F 84% 29.81 in 4.0 mi East 9.2 mph - N/A Rain Heavy Rain
4:15 PM 52.7 °F 48.4 °F 85% 29.81 in 5.0 mi East 9.2 mph - N/A Rain Rain
4:35 PM 52.7 °F 48.0 °F 84% 29.81 in 5.0 mi East 9.2 mph - N/A Rain Rain
4:55 PM 51.8 °F 47.7 °F 86% 29.81 in 3.0 mi East 9.2 mph - N/A Rain Rain
5:15 PM 51.8 °F 47.5 °F 85% 29.81 in 5.0 mi East 6.9 mph - N/A Rain Rain
5:35 PM 51.8 °F 48.2 °F 88% 29.80 in 5.0 mi East 9.2 mph - N/A Rain Light Rain
5:55 PM 52.7 °F 48.2 °F 85% 29.79 in 10.0 mi East 6.9 mph - N/A Rain Light Rain
6:15 PM 52.7 °F 47.7 °F 83% 29.80 in 10.0 mi ESE 9.2 mph - N/A   Overcast
6:35 PM 53.2 °F 48.2 °F 83% 29.79 in 7.0 mi East 3.5 mph - N/A Rain Rain
6:55 PM 53.4 °F 49.1 °F 85% 29.80 in 7.0 mi East 5.8 mph - N/A Rain Rain
7:15 PM 52.7 °F 49.1 °F 88% 29.79 in 5.0 mi Calm Calm - N/A Rain Rain
7:35 PM 52.7 °F 49.3 °F 88% 29.79 in 4.0 mi Calm Calm - N/A Rain Light Rain
7:55 PM 52.9 °F 49.5 °F 88% 29.79 in 5.0 mi Calm Calm - N/A Rain Rain
8:15 PM 52.7 °F 49.5 °F 89% 29.79 in 4.0 mi Calm Calm - N/A Rain Rain
8:35 PM 52.7 °F 49.6 °F 89% 29.79 in 5.0 mi Calm Calm - N/A Rain Heavy Rain
8:55 PM 52.7 °F 49.6 °F 89% 29.79 in 7.0 mi NE 4.6 mph - N/A   Light Drizzle
9:15 PM 53.2 °F 49.3 °F 86% 29.80 in 10.0 mi Calm Calm - N/A   Light Drizzle
9:35 PM 53.2 °F 49.3 °F 86% 29.80 in 10.0 mi East 4.6 mph - N/A   Overcast
10:15 PM 53.6 °F 48.7 °F 84% 29.80 in 10.0 mi East 3.5 mph - N/A Rain Rain
10:35 PM 53.6 °F 49.1 °F 85% 29.80 in 7.0 mi ENE 4.6 mph - N/A   Light Drizzle
10:55 PM 53.2 °F 49.1 °F 86% 29.79 in 10.0 mi ENE 6.9 mph - N/A   Light Drizzle
11:15 PM 53.6 °F 48.7 °F 84% 29.79 in 10.0 mi NE 5.8 mph - N/A   Overcast
11:35 PM 53.6 °F 48.4 °F 82% 29.79 in 10.0 mi ENE 5.8 mph - N/A   Overcast
11:55 PM 53.2 °F 48.4 °F 84% 29.79 in 10.0 mi ENE 4.6 mph - N/A   Overcast